Other Surface Observations
Issued by NWS Tucson, AZ

Home | Current Version | Previous Version | Text Only | Print | Product List | Glossary On
Versions: 1 2 3 4 5 6 7 8 9 10 11 12 13 14 15 16 17 18 19 20 21 22 23 24 25 26 27 28 29 30 31 32 33 34 35 36 37 38 39 40 41 42 43 44 45 46 47 48 49 50
000
SXUS55 KTWC 190915
OSOTWC

WEATHER ROUNDUP FOR SOUTHEAST ARIZONA
NATIONAL WEATHER SERVICE TUCSON AZ
215 AM MST SAT APR 19 2014

AZZ504>506-514-191015-
LOCATION       SKY/WX    TMP DP  RH WIND       PRES   REMARKS
TUCSON         CLOUDY    63  43  48 SE8       29.95F
DAVIS-MONTHAN  MOCLDY    64  45  51 VRB2      29.93F
CHILDRENS PARK N/A       64 N/A N/A E3                PIMA CO DEQ
ALVERNON/22ND  N/A       65 N/A N/A E3                PIMA CO DEQ
CHERRY/GLENN   N/A      N/A N/A N/A N/A               PIMA CO DEQ
TANGERINE      N/A       62 N/A N/A E4                PIMA CO DEQ
CONTL RANCH    N/A       64  45  49 SE3               PIMA CO DEQ
GRANT/1ST      N/A       65  47  51 E2                PIMA CO DEQ
CRAYCROFT/22ND N/A       64  49  59 SE5               PIMA CO DEQ
GOLFLINKS/KOLB N/A      N/A N/A N/A N/A               PIMA CO DEQ
AJO/12TH       N/A       62  45  54 S5                PIMA CO DEQ
SAGUARO EAST   N/A       63  47  56 NE2               PIMA CO DEQ
FAIRGROUNDS    N/A       61 N/A N/A SE8               PIMA CO DEQ
SAGUARO        N/A       59  42  54 N3                *SABINO CYN
SAN CARLOS     N/A       55  41  59 N2                *SAN CARLOS
GREEN VALLEY   N/A       59  44  57 S2                PIMA CO DEQ
HORSE CAMP CYN N/A       56  41  57 E12               *ARAVAIPA CYN
RINCON MTNS    N/A       43  34  71 SW3               *NR MANNING CAMP
$$

AZZ509>511-191015-
LOCATION       SKY/WX    TMP DP  RH WIND       PRES   REMARKS
SAFFORD        CLOUDY    56  41  57 N3        29.95F
STRAY HORSE    N/A       42  31  65 N4                *
TRAIL CABIN    N/A       51  37  58 SE4               *N OF GRANVILLE
BLACK HILLS    N/A       54  42  65 CALM              *N OF FT THOMAS
DRY LAKE       N/A       45  35  67 SE4               *NATANES MTNS
NOON CREEK     N/A       52  41  66 SW6G10            *PINALENO MTNS
COLUMBINE      N/A       39  31  73 S5G12             *PINALENO MTNS
GUTHRIE        N/A       53  36  52 S7G12             *SW OF GUTHRIE
$$

AZZ502-503-513-191015-
LOCATION       SKY/WX    TMP DP  RH WIND       PRES   REMARKS
NOGALES        PTCLDY    56  44  64 E7        29.98S
SELLS          N/A       64  40  41 SE3               *
SASABE         N/A       55  36  48 S5                *ALTAR VLY
HOPKINS        N/A       50  36  59 S4G11             *SANTA RITA MTNS
CARR CYN       N/A       49  40  72 S2                *W OF HEREFORD
$$

AZZ507-508-512-191015-
LOCATION       SKY/WX    TMP DP  RH WIND       PRES   REMARKS
SIERRA VISTA   MOCLDY    54  46  74 W3        30.01F
DOUGLAS        MOCLDY    50  47  89 CALM      30.01S
EMPIRE MTNS    N/A       49  44  83 W5                *LAS CIENEGAS NCA
MULESHOE RANCH N/A       54  40  58 S4                *PRESERVE
HEADQUARTERS   N/A       48  45  89 E3                *CHIRICAHUA MTNS
$$

.............................NOTES.............................
THIS IS AN AUTOMATED COLLECTIVE WITH MINIMAL QUALITY CONTROL.
PIMA CO DEQ SITES HAVE NONSTANDARD WIND SENSOR HEIGHTS.
PIMA CO DEQ SITES DO NOT REPORT WIND GUSTS.
* INDICATES WIND SENSORS LOCATED AT 20 FEET INSTEAD OF 33 FEET.
..............................KEY..............................
SKY/WX - SKY CONDITION/WEATHER
TMP    - TEMPERATURE IN FAHRENHEIT
DP     - DEWPOINT IN FAHRENHEIT
RH     - RELATIVE HUMIDITY IN PERCENT
WIND   - DIRECTION AND SPEED IN MILES PER HOUR (MPH)
VRB    - VARIABLE WIND DIRECTION
PRES   - MEAN SEA LEVEL PRESSURE IN INCHES OF MERCURY
         F - FALLING PRESSURE   R - RISING PRESSURE
         S - STEADY PRESSURE
VSB    - VISIBILITY IN MILES
HX     - HEAT INDEX IN FAHRENHEIT
WCI    - WIND CHILL INDEX IN FAHRENHEIT
N/A    - NOT AVAILABLE
AFB    - AIR FORCE BASE
         DAVIS-MONTHAN IS DAVIS-MONTHAN AIR FORCE BASE
CYN    - CANYON
MTNS   - MOUNTAINS
NCA    - NATIONAL CONSERVATION AREA
NR     - NEAR
VLY    - VALLEY
CONTL  - CONTINENTAL
PIMA CO DEQ - PIMA COUNTY DEPT OF ENVIRONMENTAL QUALITY



USA.gov is the U.S. government's official web portal to all federal, state and local government web resources and services.